When you browse on this site, cookies collect data to enhance your experience and personalize the content and advertising you see.
Visit our Privacy Policy to learn more. By continuing to use the site, you agree to this use of cookies and data.
  • In Österreich
  • Länderverzeichnis
  • Für 7 Tage
  • Wassertemperatur
  • Satellitenkarten
  • Wetterkarte
  • News
  • Widgets
  • user-avatar
    Anmelden

    Stündliche Wetter Hamburg

    Heute, 17 Februar, Sonntag

    Zeit Temperatur Niederschläge Wind Luftdruck Luftfeuchtigkeit
    00:00 +6°C° 0 mm 2 m/S 767 mmHg 93%
    01:00 +6°C° 0 mm 2 m/S 767 mmHg 93%
    02:00 +5°C° 0 mm 2 m/S 767 mmHg 93%
    03:00 +5°C° 0 mm 2 m/S 767 mmHg 94%
    04:00 +5°C° 0 mm 2 m/S 767 mmHg 94%
    05:00 +5°C° 0 mm 2 m/S 766 mmHg 94%
    06:00 +4°C° 0 mm 2 m/S 766 mmHg 93%
    07:00 +4°C° 0 mm 2 m/S 766 mmHg 93%
    08:00 +5°C° 0 mm 2 m/S 766 mmHg 88%
    09:00 +6°C° 0 mm 2 m/S 766 mmHg 83%
    10:00 +7°C° 0 mm 2 m/S 766 mmHg 78%
    11:00 +9°C° 0 mm 2 m/S 766 mmHg 73%
    12:00 +10°C° 0 mm 2 m/S 766 mmHg 67%
    13:00 +13°C° 0 mm 2 m/S 766 mmHg 62%
    14:00 +13°C° 0 mm 2 m/S 765 mmHg 62%
    15:00 +13°C° 0 mm 2 m/S 765 mmHg 63%
    16:00 +13°C° 0 mm 2 m/S 764 mmHg 64%
    17:00 +10°C° 0 mm 2 m/S 764 mmHg 69%
    18:00 +9°C° 0 mm 2 m/S 764 mmHg 74%
    19:00 +7°C° 0 mm 2 m/S 764 mmHg 79%
    20:00 +7°C° 0 mm 2 m/S 764 mmHg 80%
    21:00 +7°C° 0 mm 2 m/S 764 mmHg 81%
    22:00 +6°C° 0 mm 2 m/S 764 mmHg 82%
    23:00 +6°C° 0 mm 2 m/S 764 mmHg 84%

    Morgen, 18 Februar, Montag

    Zeit Temperatur Niederschläge Wind Luftdruck Luftfeuchtigkeit
    00:00 +6°C° 0 mm 2 m/S 764 mmHg 85%
    01:00 +5°C° 0 mm 2 m/S 763 mmHg 87%
    02:00 +5°C° 0 mm 2 m/S 763 mmHg 88%
    03:00 +5°C° 0 mm 2 m/S 763 mmHg 89%
    04:00 +4°C° 0 mm 2 m/S 763 mmHg 90%
    05:00 +4°C° 0 mm 2 m/S 763 mmHg 89%
    06:00 +4°C° 0 mm 2 m/S 763 mmHg 89%
    07:00 +3°C° 0 mm 2 m/S 763 mmHg 89%
    08:00 +5°C° 0 mm 2 m/S 763 mmHg 83%
    09:00 +5°C° 0 mm 3 m/S 763 mmHg 77%
    10:00 +7°C° 0 mm 3 m/S 763 mmHg 71%
    11:00 +8°C° 0 mm 3 m/S 762 mmHg 67%
    12:00 +10°C° 0 mm 3 m/S 762 mmHg 62%
    13:00 +11°C° 0 mm 3 m/S 762 mmHg 58%
    14:00 +11°C° 0 mm 3 m/S 762 mmHg 59%
    15:00 +12°C° 0 mm 3 m/S 761 mmHg 60%
    16:00 +13°C° 0 mm 2 m/S 761 mmHg 60%
    17:00 +10°C° 0 mm 2 m/S 761 mmHg 66%
    18:00 +9°C° 0 mm 2 m/S 761 mmHg 71%
    19:00 +7°C° 0 mm 2 m/S 761 mmHg 77%
    20:00 +7°C° 0 mm 2 m/S 761 mmHg 78%
    21:00 +6°C° 0 mm 2 m/S 760 mmHg 79%
    22:00 +6°C° 0 mm 2 m/S 760 mmHg 80%
    23:00 +6°C° 0 mm 2 m/S 760 mmHg 81%

    übermorgen, 19 Februar, Dienstag

    Zeit Temperatur Niederschläge Wind Luftdruck Luftfeuchtigkeit
    00:00 +5°C° 0 mm 3 m/S 760 mmHg 81%
    01:00 +4°C° 0 mm 3 m/S 760 mmHg 81%
    02:00 +5°C° 0 mm 3 m/S 760 mmHg 84%
    03:00 +5°C° 0 mm 3 m/S 759 mmHg 87%
    04:00 +5°C° 0 mm 3 m/S 759 mmHg 90%
    05:00 +5°C° 0.4 mm 3 m/S 759 mmHg 91%
    06:00 +5°C° 0.4 mm 3 m/S 759 mmHg 93%
    07:00 +5°C° 0.4 mm 3 m/S 759 mmHg 94%
    08:00 +5°C° 0.5 mm 4 m/S 759 mmHg 93%
    09:00 +6°C° 0.5 mm 4 m/S 760 mmHg 92%
    10:00 +6°C° 0.5 mm 4 m/S 760 mmHg 91%
    11:00 +6°C° 0.1 mm 5 m/S 760 mmHg 87%
    12:00 +7°C° 0.1 mm 5 m/S 760 mmHg 82%
    13:00 +7°C° 0.1 mm 5 m/S 761 mmHg 77%
    14:00 +8°C° 0 mm 5 m/S 761 mmHg 76%
    15:00 +8°C° 0 mm 5 m/S 761 mmHg 74%
    16:00 +8°C° 0 mm 5 m/S 761 mmHg 73%
    17:00 +7°C° 0 mm 4 m/S 761 mmHg 79%
    18:00 +7°C° 0 mm 3 m/S 762 mmHg 84%
    19:00 +4°C° 0 mm 3 m/S 762 mmHg 90%
    20:00 +4°C° 0 mm 3 m/S 762 mmHg 91%
    21:00 +4°C° 0 mm 3 m/S 763 mmHg 92%
    22:00 +4°C° 0 mm 3 m/S 763 mmHg 93%
    23:00 +3°C° 0 mm 3 m/S 763 mmHg 94%

    20 Februar, Mittwoch

    Zeit Temperatur Niederschläge Wind Luftdruck Luftfeuchtigkeit
    00:00 +3°C° 0 mm 3 m/S 763 mmHg 94%
    01:00 +3°C° 0 mm 3 m/S 763 mmHg 94%
    02:00 +3°C° 0 mm 3 m/S 763 mmHg 95%
    03:00 +2°C° 0 mm 3 m/S 763 mmHg 95%
    04:00 +2°C° 0 mm 3 m/S 763 mmHg 95%
    05:00 +3°C° 0 mm 3 m/S 763 mmHg 94%
    06:00 +3°C° 0 mm 4 m/S 763 mmHg 92%
    07:00 +3°C° 0 mm 4 m/S 763 mmHg 91%
    08:00 +4°C° 0 mm 4 m/S 763 mmHg 89%
    09:00 +5°C° 0 mm 4 m/S 764 mmHg 88%
    10:00 +5°C° 0 mm 5 m/S 764 mmHg 86%
    11:00 +6°C° 0 mm 5 m/S 764 mmHg 83%
    12:00 +7°C° 0 mm 5 m/S 764 mmHg 79%
    13:00 +8°C° 0 mm 5 m/S 764 mmHg 76%
    14:00 +8°C° 0 mm 4 m/S 764 mmHg 75%
    15:00 +8°C° 0 mm 4 m/S 764 mmHg 75%
    16:00 +8°C° 0 mm 4 m/S 764 mmHg 74%
    17:00 +8°C° 0 mm 4 m/S 764 mmHg 76%
    18:00 +8°C° 0 mm 3 m/S 764 mmHg 78%
    19:00 +7°C° 0 mm 3 m/S 764 mmHg 79%
    20:00 +6°C° 0.1 mm 4 m/S 764 mmHg 80%
    21:00 +6°C° 0.1 mm 4 m/S 764 mmHg 80%
    22:00 +6°C° 0.1 mm 4 m/S 764 mmHg 81%
    23:00 +5°C° 0 mm 4 m/S 764 mmHg 80%

    21 Februar, Donnerstag

    Zeit Temperatur Niederschläge Wind Luftdruck Luftfeuchtigkeit
    00:00 +5°C° 0 mm 4 m/S 764 mmHg 80%
    01:00 +5°C° 0 mm 5 m/S 764 mmHg 80%
    02:00 +5°C° 0.1 mm 5 m/S 763 mmHg 82%
    03:00 +6°C° 0.1 mm 5 m/S 763 mmHg 84%
    04:00 +6°C° 0.1 mm 5 m/S 763 mmHg 87%
    05:00 +6°C° 0.1 mm 5 m/S 763 mmHg 88%
    06:00 +7°C° 0.1 mm 5 m/S 763 mmHg 89%
    07:00 +7°C° 0.1 mm 5 m/S 763 mmHg 90%
    08:00 +7°C° 0 mm 5 m/S 764 mmHg 89%
    09:00 +7°C° 0 mm 5 m/S 764 mmHg 88%
    10:00 +7°C° 0 mm 5 m/S 765 mmHg 87%
    11:00 +8°C° 0 mm 5 m/S 765 mmHg 84%
    12:00 +8°C° 0 mm 5 m/S 766 mmHg 81%
    13:00 +9°C° 0 mm 5 m/S 766 mmHg 78%
    14:00 +9°C° 0 mm 5 m/S 766 mmHg 77%
    15:00 +9°C° 0 mm 5 m/S 766 mmHg 75%
    16:00 +9°C° 0 mm 5 m/S 767 mmHg 74%
    17:00 +8°C° 0 mm 4 m/S 767 mmHg 80%
    18:00 +6°C° 0 mm 4 m/S 767 mmHg 85%
    19:00 +5°C° 0 mm 3 m/S 768 mmHg 91%
    20:00 +5°C° 0 mm 3 m/S 768 mmHg 92%
    21:00 +4°C° 0 mm 3 m/S 769 mmHg 93%
    22:00 +4°C° 0 mm 3 m/S 769 mmHg 94%
    23:00 +4°C° 0 mm 3 m/S 769 mmHg 94%

    22 Februar, Freitag

    Zeit Temperatur Niederschläge Wind Luftdruck Luftfeuchtigkeit
    00:00 +3°C° 0 mm 3 m/S 769 mmHg 95%
    01:00 +3°C° 0 mm 3 m/S 770 mmHg 95%
    02:00 +3°C° 0 mm 3 m/S 770 mmHg 95%
    03:00 +4°C° 0 mm 2 m/S 770 mmHg 96%
    04:00 +4°C° 0 mm 2 m/S 770 mmHg 96%
    05:00 +4°C° 0 mm 2 m/S 771 mmHg 97%
    06:00 +4°C° 0 mm 2 m/S 771 mmHg 97%
    07:00 +4°C° 0 mm 2 m/S 771 mmHg 97%
    08:00 +5°C° 0 mm 2 m/S 772 mmHg 93%
    09:00 +6°C° 0 mm 2 m/S 773 mmHg 89%
    10:00 +7°C° 0 mm 2 m/S 773 mmHg 85%
    11:00 +7°C° 0 mm 2 m/S 774 mmHg 80%
    12:00 +8°C° 0 mm 2 m/S 774 mmHg 75%
    13:00 +9°C° 0 mm 2 m/S 775 mmHg 70%
    14:00 +9°C° 0 mm 2 m/S 775 mmHg 72%
    15:00 +8°C° 0 mm 3 m/S 776 mmHg 74%
    16:00 +8°C° 0 mm 3 m/S 776 mmHg 76%
    17:00 +7°C° 0 mm 3 m/S 776 mmHg 78%
    18:00 +5°C° 0 mm 3 m/S 777 mmHg 80%
    19:00 +4°C° 0 mm 4 m/S 777 mmHg 83%
    20:00 +3°C° 0 mm 4 m/S 777 mmHg 81%
    21:00 +1°C° 0 mm 4 m/S 778 mmHg 80%
    22:00 +1°C° 0 mm 3 m/S 778 mmHg 78%
    23:00 +1°C° 0 mm 3 m/S 778 mmHg 80%
    Mehr zeigen